Weather in Sremska Mitrovica

Serbia     44°58′19″N   19°36′42″E
temp.,
°C
wind,
m/s
gust,
m/s
humid.,
%
clouds,
%
prec.,
mm/h
press.,
hPa
HPBL,
m
6 august, fri
fri623:00+16wnw4109844 0.2 1008364
02:00+14w349730 0.2 100990
05:00+14w11942 0.0 100912
08:00+19sw11722 0.0 1009245
11:00+27nnw23340 0.0 10091524
14:00+30nw34254 0.0 10072781
17:00+31nnw452456 0.0 10072768
20:00+25n333419 0.0 100722
7 august, sat
sat723:00+21ene22472 0.0 101017
02:00+18ese22545 0.0 101111
05:00+17ese22584 0.0 101114
08:00+23se34405 0.0 1012278
11:00+31se44244 0.0 10111590
14:00+35se44150 0.0 10092828
17:00+36ese45130 0.0 10083307
20:00+28e410215 0.0 1008150
8 august, sun
sun823:00+24ese4112775 0.0 1009171
02:00+21sse33370 0.0 101037
05:00+20w11480 0.0 101111
08:00+27s22320 0.0 1012231
11:00+35ese33210 0.0 10121216
14:00+39ese45160 0.0 10103321
17:00+39e451542 0.0 1008890
20:00+33ene132147 0.0 100959
9 august, mon
mon923:00+27nnw410395 0.0 1011161
02:00+24nnw6124882 0.0 1014335
05:00+18wnw587512 0.0 1018286
08:00+21nw565922 0.0 1019451
11:00+28nw33395 0.0 10191053
14:00+34nnw322939 0.0 10171856
17:00+35nne22255 0.0 10152289
20:00+29nne33388 0.0 101529
10 august, tue
tue1023:00+26n334436 0.0 101634
02:00+23wnw22500 0.0 101614
05:00+21wnw33565 0.0 101533
08:00+25wnw454281 0.0 1016324
11:00+32nnw55280 0.0 10161301
14:00+35nnw45220 0.0 10152857
17:00+35nw66200 0.0 10133177
20:00+29n510271 0.0 1014189